TimeEST,TemperatureF,Dew PointF,Humidity,Sea Level PressureIn,VisibilityMPH,Wind Direction,Wind SpeedMPH,Gust SpeedMPH,PrecipitationIn,Events,Conditions,WindDirDegrees,DateUTC
12:15 AM,19.4,15.8,86,29.90,8.0,Variable,4.6,-,N/A,,Unknown,0,2013-02-17 05:15:00
12:35 AM,17.6,15.8,93,29.90,4.0,WNW,10.4,-,N/A,,Clear,300,2013-02-17 05:35:00
12:55 AM,17.6,15.8,93,29.89,1.5,West,13.8,-,N/A,,Clear,280,2013-02-17 05:55:00
1:15 AM,15.8,15.8,100,29.91,1.5,West,10.4,-,N/A,,Clear,280,2013-02-17 06:15:00
1:35 AM,17.6,15.8,93,29.90,1.5,WNW,8.1,-,N/A,,Clear,300,2013-02-17 06:35:00
1:55 AM,15.8,14.0,93,29.91,10.0,WNW,9.2,-,N/A,,Unknown,300,2013-02-17 06:55:00
2:15 AM,17.6,14.0,86,29.92,8.0,WNW,6.9,-,N/A,,Unknown,290,2013-02-17 07:15:00
2:35 AM,15.8,12.2,86,29.91,3.0,NW,12.7,-,N/A,,Unknown,310,2013-02-17 07:35:00
2:55 AM,15.8,10.4,79,29.92,4.0,WNW,16.1,-,N/A,,Partly Cloudy,290,2013-02-17 07:55:00
3:15 AM,14.0,10.4,86,29.93,4.0,West,11.5,-,N/A,,Unknown,280,2013-02-17 08:15:00
3:35 AM,14.0,10.4,86,29.92,7.0,WNW,15.0,-,N/A,,Unknown,290,2013-02-17 08:35:00
3:55 AM,14.0,6.8,73,29.93,8.0,WNW,17.3,-,N/A,,Unknown,300,2013-02-17 08:55:00
4:15 AM,14.0,5.0,67,29.93,10.0,WNW,10.4,-,N/A,,Partly Cloudy,290,2013-02-17 09:15:00
4:35 AM,14.0,6.8,73,29.93,10.0,WNW,9.2,-,N/A,,Partly Cloudy,290,2013-02-17 09:35:00
4:55 AM,14.0,6.8,73,29.94,10.0,WNW,8.1,-,N/A,,Partly Cloudy,290,2013-02-17 09:55:00
5:15 AM,12.2,6.8,79,29.94,10.0,West,10.4,-,N/A,,Partly Cloudy,280,2013-02-17 10:15:00
5:35 AM,12.2,8.6,85,29.95,6.0,WNW,9.2,-,N/A,,Unknown,290,2013-02-17 10:35:00
5:55 AM,12.2,8.6,85,29.96,9.0,WNW,8.1,-,N/A,,Unknown,290,2013-02-17 10:55:00
6:15 AM,12.2,10.4,92,29.95,9.0,WNW,6.9,-,N/A,,Partly Cloudy,290,2013-02-17 11:15:00
6:35 AM,12.2,10.4,92,29.97,6.0,West,8.1,-,N/A,,Scattered Clouds,280,2013-02-17 11:35:00
6:55 AM,12.2,10.4,92,29.97,5.0,WNW,6.9,-,N/A,,Partly Cloudy,300,2013-02-17 11:55:00
7:15 AM,12.2,10.4,92,29.97,6.0,WNW,5.8,-,N/A,,Partly Cloudy,300,2013-02-17 12:15:00
7:35 AM,12.2,12.2,100,29.99,7.0,Variable,6.9,-,N/A,,Unknown,0,2013-02-17 12:35:00
8:15 AM,12.2,12.2,100,30.00,3.0,WNW,4.6,-,N/A,,Partly Cloudy,290,2013-02-17 13:15:00
8:35 AM,14.0,12.2,93,30.01,2.5,WNW,6.9,-,N/A,,Partly Cloudy,290,2013-02-17 13:35:00
8:55 AM,14.0,12.2,93,30.01,1.2,West,10.4,-,N/A,,Mostly Cloudy,270,2013-02-17 13:55:00
9:15 AM,14.0,12.2,93,30.01,1.2,WNW,9.2,-,N/A,,Clear,290,2013-02-17 14:15:00
9:35 AM,14.0,14.0,100,30.02,0.5,WNW,5.8,-,N/A,,Unknown,300,2013-02-17 14:35:00
9:55 AM,14.0,12.2,93,30.01,0.8,WNW,13.8,-,N/A,,Unknown,290,2013-02-17 14:55:00
10:15 AM,15.8,12.2,86,30.02,0.5,WNW,12.7,-,N/A,,Unknown,300,2013-02-17 15:15:00
10:35 AM,15.8,12.2,86,30.04,2.0,West,11.5,-,N/A,,Clear,280,2013-02-17 15:35:00
10:55 AM,15.8,12.2,86,30.04,1.5,WNW,15.0,-,N/A,,Clear,290,2013-02-17 15:55:00
11:15 AM,17.6,10.4,73,30.05,3.0,WNW,12.7,-,N/A,,Partly Cloudy,290,2013-02-17 16:15:00
11:35 AM,17.6,10.4,73,30.06,3.0,NW,16.1,-,N/A,,Unknown,310,2013-02-17 16:35:00
11:55 AM,19.4,10.4,68,30.05,10.0,WNW,13.8,-,N/A,,Clear,300,2013-02-17 16:55:00
12:15 PM,21.2,12.2,68,30.04,6.0,West,16.1,-,N/A,,Partly Cloudy,280,2013-02-17 17:15:00
12:35 PM,19.4,10.4,68,30.04,10.0,West,16.1,-,N/A,,Scattered Clouds,280,2013-02-17 17:35:00
12:55 PM,21.2,8.6,58,30.04,10.0,WNW,11.5,-,N/A,,Scattered Clouds,300,2013-02-17 17:55:00
1:15 PM,21.2,8.6,58,30.04,6.0,West,15.0,28.8,N/A,,Scattered Clouds,270,2013-02-17 18:15:00
1:55 PM,21.2,8.6,58,30.03,10.0,WNW,17.3,-,N/A,,Clear,290,2013-02-17 18:55:00
2:15 PM,23.0,6.8,50,30.02,10.0,West,13.8,-,N/A,,Clear,280,2013-02-17 19:15:00
2:35 PM,24.8,6.8,46,30.04,10.0,WNW,11.5,-,N/A,,Clear,290,2013-02-17 19:35:00
2:55 PM,24.8,6.8,46,30.04,10.0,West,16.1,-,N/A,,Clear,280,2013-02-17 19:55:00
3:15 PM,24.8,6.8,46,30.04,10.0,West,8.1,-,N/A,,Clear,270,2013-02-17 20:15:00
3:35 PM,24.8,6.8,46,30.04,10.0,WNW,10.4,-,N/A,,Clear,300,2013-02-17 20:35:00
3:55 PM,26.6,6.8,43,30.04,10.0,West,11.5,-,N/A,,Clear,280,2013-02-17 20:55:00
4:15 PM,26.6,5.0,40,30.05,10.0,West,11.5,-,N/A,,Clear,280,2013-02-17 21:15:00
4:35 PM,26.6,5.0,40,30.05,10.0,WNW,9.2,-,N/A,,Clear,290,2013-02-17 21:35:00
4:55 PM,26.6,1.4,34,30.06,10.0,West,12.7,-,N/A,,Clear,270,2013-02-17 21:55:00
5:15 PM,24.8,1.4,36,30.05,10.0,West,13.8,-,N/A,,Clear,280,2013-02-17 22:15:00
5:35 PM,24.8,1.4,36,30.06,10.0,West,9.2,-,N/A,,Clear,280,2013-02-17 22:35:00
5:55 PM,24.8,1.4,36,30.08,10.0,Variable,6.9,-,N/A,,Clear,0,2013-02-17 22:55:00
6:15 PM,24.8,1.4,36,30.08,10.0,West,6.9,-,N/A,,Clear,280,2013-02-17 23:15:00
6:35 PM,23.0,1.4,39,30.08,10.0,WNW,4.6,-,N/A,,Clear,290,2013-02-17 23:35:00
6:55 PM,23.0,1.4,39,30.10,10.0,WNW,4.6,-,N/A,,Clear,290,2013-02-17 23:55:00
7:15 PM,23.0,1.4,39,30.10,10.0,WNW,5.8,-,N/A,,Clear,290,2013-02-18 00:15:00
7:35 PM,21.2,1.4,42,30.10,10.0,WNW,5.8,-,N/A,,Clear,290,2013-02-18 00:35:00
7:55 PM,21.2,1.4,42,30.12,10.0,WNW,6.9,-,N/A,,Clear,290,2013-02-18 00:55:00
8:15 PM,21.2,1.4,42,30.12,10.0,West,3.5,-,N/A,,Clear,280,2013-02-18 01:15:00
8:35 PM,21.2,-0.4,39,30.11,10.0,West,5.8,-,N/A,,Clear,280,2013-02-18 01:35:00
8:55 PM,21.2,1.4,42,30.13,10.0,West,5.8,-,N/A,,Clear,280,2013-02-18 01:55:00
9:15 PM,21.2,1.4,42,30.13,10.0,West,4.6,-,N/A,,Clear,270,2013-02-18 02:15:00
9:35 PM,21.2,1.4,42,30.13,10.0,West,3.5,-,N/A,,Clear,270,2013-02-18 02:35:00
9:55 PM,21.2,1.4,42,30.14,10.0,West,4.6,-,N/A,,Clear,280,2013-02-18 02:55:00
10:15 PM,21.2,1.4,42,30.15,10.0,West,3.5,-,N/A,,Clear,270,2013-02-18 03:15:00
10:35 PM,21.2,1.4,42,30.14,10.0,West,4.6,-,N/A,,Clear,270,2013-02-18 03:35:00
10:55 PM,21.2,1.4,42,30.15,10.0,West,4.6,-,N/A,,Clear,270,2013-02-18 03:55:00
11:55 PM,21.2,1.4,42,30.15,10.0,West,4.6,-,N/A,,Clear,270,2013-02-18 04:55:00